Location: Chantarel
(45.1638°N, 1.7873°E)
Time: 06:50:33
(UTC+00:00)

SJ-6B - Pass Details

Date: 03 March 2021
Orbit: 508 x 581 km, 97.6° (Epoch: 10 April)

Event Time Altitude Azimuth Distance (km) Brightness Sun altitude
Exits shadow 19:22:39 38° 128° (SE) 890 3.4 -18.3°
Maximum altitude 19:23:54 54° 73° (ENE) 700 3.0 -18.5°
Drops below altitude 10° 19:27:52 10° 356° (N) 1,877 5.7 -19.2°
Sets 19:30:02 0° 352° (N) 2,768 6.6 -19.6°
